URO620 EGHH-LFOK

Flight info

Callsign URO620
Flight time 0h 46m
Altitude 33000
Route GWC DCT ABB DCT REM DCT DIKOL
Aircraft A346/H-SDE2E3FGHIJ3J4J5M1RWXY/LB1D1

Departure

Time 2026-04-21 14:38
Airport Bournemouth Airport (EGHH)

Arrival

Time 2026-04-21 15:25
Airport Chalons Vatry airport (LFOK)
Time Latitude Longitude Altitude Speed Heading
2026-04-21 13:59 50.78606 -1.84236 54 ft 0 kts 255°
2026-04-21 14:27 50.78612 -1.84202 60 ft 4 kts 256°
2026-04-21 14:28 50.78618 -1.84168 42 ft 4 kts 241°
2026-04-21 14:28 50.78631 -1.84146 47 ft 4 kts 205°
2026-04-21 14:28 50.78642 -1.84141 47 ft 4 kts 180°
2026-04-21 14:28 50.78667 -1.84147 47 ft 4 kts 165°
2026-04-21 14:29 50.78687 -1.84155 48 ft 1 kts 166°
2026-04-21 14:29 50.78691 -1.84157 47 ft 0 kts 166°
2026-04-21 14:33 50.78682 -1.84153 49 ft 8 kts 166°
2026-04-21 14:33 50.78586 -1.84114 47 ft 17 kts 165°
2026-04-21 14:34 50.78455 -1.84061 47 ft 22 kts 165°
2026-04-21 14:34 50.78295 -1.83995 51 ft 26 kts 165°
2026-04-21 14:34 50.78169 -1.83942 54 ft 0 kts 165°
2026-04-21 14:34 50.78147 -1.83933 51 ft 9 kts 165°
2026-04-21 14:35 50.78072 -1.83956 52 ft 15 kts 224°
2026-04-21 14:35 50.78024 -1.84132 50 ft 20 kts 255°
2026-04-21 14:35 50.77985 -1.84368 52 ft 24 kts 255°
2026-04-21 14:35 50.77943 -1.84638 53 ft 26 kts 255°
2026-04-21 14:36 50.77896 -1.84919 49 ft 23 kts 255°
2026-04-21 14:36 50.77855 -1.85166 54 ft 22 kts 256°
2026-04-21 14:36 50.77814 -1.85413 52 ft 25 kts 255°
2026-04-21 14:36 50.77778 -1.85627 52 ft 12 kts 249°
2026-04-21 14:37 50.77727 -1.85716 50 ft 7 kts 236°
2026-04-21 14:37 50.77728 -1.85771 49 ft 3 kts 322°
2026-04-21 14:37 50.77766 -1.85739 52 ft 11 kts 68°
2026-04-21 14:37 50.77786 -1.85593 49 ft 15 kts 76°
2026-04-21 14:38 50.77799 -1.85505 51 ft 21 kts 76°
2026-04-21 14:38 50.77908 -1.84850 53 ft 99 kts 75°
2026-04-21 14:38 50.78140 -1.83463 120 ft 153 kts 76°
2026-04-21 14:38 50.78398 -1.81791 848 ft 158 kts 75°
2026-04-21 14:39 50.78663 -1.80110 1722 ft 157 kts 76°
2026-04-21 14:39 50.78938 -1.78408 2507 ft 164 kts 76°
2026-04-21 14:39 50.79235 -1.76626 3287 ft 170 kts 77°
2026-04-21 14:39 50.79410 -1.74720 3993 ft 183 kts 84°
2026-04-21 14:40 50.79513 -1.72597 4577 ft 204 kts 85°
2026-04-21 14:40 50.79616 -1.70238 5260 ft 224 kts 85°
2026-04-21 14:40 50.79726 -1.67681 6027 ft 240 kts 85°
2026-04-21 14:40 50.79854 -1.65012 7041 ft 246 kts 85°
2026-04-21 14:41 50.80026 -1.62300 8102 ft 250 kts 84°
2026-04-21 14:41 50.80217 -1.59524 9162 ft 256 kts 84°
2026-04-21 14:41 50.80412 -1.56687 10222 ft 263 kts 84°
2026-04-21 14:41 50.80609 -1.53745 11100 ft 276 kts 84°
2026-04-21 14:42 50.80817 -1.50619 11800 ft 295 kts 84°
2026-04-21 14:42 50.81038 -1.47283 12467 ft 314 kts 83°
2026-04-21 14:42 50.81271 -1.43739 13113 ft 334 kts 83°
2026-04-21 14:42 50.81518 -1.39976 13757 ft 353 kts 83°
2026-04-21 14:43 50.81776 -1.36047 14580 ft 362 kts 83°
2026-04-21 14:43 50.82035 -1.32025 15495 ft 369 kts 83°
2026-04-21 14:43 50.82293 -1.27924 16289 ft 379 kts 82°
2026-04-21 14:43 50.82560 -1.23707 17085 ft 389 kts 82°
2026-04-21 14:44 50.82836 -1.19388 17906 ft 399 kts 81°
2026-04-21 14:44 50.83115 -1.14966 18680 ft 408 kts 81°
2026-04-21 14:44 50.83403 -1.10450 19396 ft 416 kts 81°
2026-04-21 14:44 50.83695 -1.05780 20139 ft 423 kts 81°
2026-04-21 14:45 50.83983 -1.01097 20841 ft 432 kts 81°
2026-04-21 14:45 50.84275 -0.96324 21528 ft 440 kts 81°
2026-04-21 14:45 50.84572 -0.91433 22238 ft 448 kts 80°
2026-04-21 14:45 50.84869 -0.86478 22944 ft 456 kts 80°
2026-04-21 14:46 50.85160 -0.81421 23616 ft 465 kts 82°
2026-04-21 14:46 50.85068 -0.76196 24159 ft 481 kts 92°
2026-04-21 14:46 50.84355 -0.70943 24746 ft 493 kts 105°
2026-04-21 14:46 50.83131 -0.65839 25442 ft 498 kts 110°
2026-04-21 14:47 50.81776 -0.60794 26354 ft 494 kts 112°
2026-04-21 14:47 50.80424 -0.55870 27683 ft 481 kts 112°
2026-04-21 14:47 50.79112 -0.51063 29005 ft 471 kts 112°
2026-04-21 14:47 50.77831 -0.46315 30066 ft 468 kts 111°
2026-04-21 14:48 50.76562 -0.41568 30780 ft 468 kts 111°
2026-04-21 14:48 50.75305 -0.36849 31176 ft 464 kts 111°
2026-04-21 14:48 50.74053 -0.32139 31268 ft 463 kts 111°
2026-04-21 14:49 50.71549 -0.22736 31273 ft 462 kts 111°
2026-04-21 14:49 50.69053 -0.13390 31275 ft 462 kts 111°
2026-04-21 14:50 50.66973 -0.05631 31277 ft 462 kts 111°
2026-04-21 14:50 50.64038 0.05257 31267 ft 463 kts 111°
2026-04-21 14:51 50.61506 0.14637 31273 ft 463 kts 111°
2026-04-21 14:51 50.58960 0.24017 31267 ft 463 kts 112°
2026-04-21 14:52 50.56423 0.33324 31269 ft 462 kts 112°
2026-04-21 14:52 50.53869 0.42658 31270 ft 463 kts 112°
2026-04-21 14:53 50.51321 0.51912 31276 ft 464 kts 111°
2026-04-21 14:53 50.48747 0.61251 31262 ft 465 kts 111°
2026-04-21 14:54 50.46167 0.70577 31257 ft 465 kts 111°
2026-04-21 14:54 50.43577 0.79897 31257 ft 465 kts 111°
2026-04-21 14:55 50.40978 0.89211 31241 ft 465 kts 112°
2026-04-21 14:55 50.38371 0.98500 31257 ft 466 kts 111°
2026-04-21 14:56 50.35760 1.07780 31250 ft 466 kts 111°
2026-04-21 14:56 50.33134 1.17087 31236 ft 466 kts 112°
2026-04-21 14:57 50.30480 1.26455 31243 ft 483 kts 112°
2026-04-21 14:57 50.29090 1.31351 31243 ft 501 kts 112°
2026-04-21 14:57 50.27655 1.36388 31238 ft 509 kts 112°
2026-04-21 14:58 50.24742 1.46550 31249 ft 514 kts 112°
2026-04-21 14:58 50.21819 1.56729 31218 ft 508 kts 112°
2026-04-21 14:59 50.18935 1.66736 31184 ft 503 kts 112°
2026-04-21 14:59 50.17495 1.71720 30908 ft 503 kts 112°
2026-04-21 14:59 50.16056 1.76690 30656 ft 503 kts 112°
2026-04-21 14:59 50.14609 1.81668 30405 ft 504 kts 112°
2026-04-21 15:00 50.13078 1.86610 30189 ft 507 kts 115°
2026-04-21 15:00 50.11405 1.91382 29897 ft 510 kts 117°
2026-04-21 15:00 50.09664 1.96204 29604 ft 511 kts 117°
2026-04-21 15:00 50.07912 2.01011 29326 ft 511 kts 117°
2026-04-21 15:01 50.06152 2.05834 29044 ft 511 kts 117°
2026-04-21 15:01 50.04394 2.10649 28673 ft 512 kts 117°
2026-04-21 15:01 50.02634 2.15472 28221 ft 512 kts 117°
2026-04-21 15:01 50.00873 2.20292 27655 ft 512 kts 117°
2026-04-21 15:02 49.99112 2.25105 27045 ft 513 kts 117°
2026-04-21 15:02 49.97349 2.29917 26460 ft 512 kts 117°
2026-04-21 15:02 49.95589 2.34714 25966 ft 506 kts 117°
2026-04-21 15:02 49.93856 2.39426 25576 ft 499 kts 117°
2026-04-21 15:03 49.92135 2.44096 25125 ft 496 kts 117°
2026-04-21 15:03 49.90426 2.48728 24667 ft 492 kts 117°
2026-04-21 15:03 49.88730 2.53319 24221 ft 488 kts 117°
2026-04-21 15:03 49.87047 2.57865 23783 ft 485 kts 117°
2026-04-21 15:04 49.85372 2.62385 23304 ft 480 kts 117°
2026-04-21 15:04 49.83714 2.66854 22875 ft 477 kts 117°
2026-04-21 15:04 49.82059 2.71305 22474 ft 474 kts 117°
2026-04-21 15:04 49.80422 2.75704 22122 ft 466 kts 118°
2026-04-21 15:05 49.78817 2.80001 21774 ft 456 kts 118°
2026-04-21 15:05 49.75675 2.88392 21021 ft 445 kts 118°
2026-04-21 15:05 49.74126 2.92521 20634 ft 440 kts 118°
2026-04-21 15:06 49.72596 2.96592 20239 ft 436 kts 118°
2026-04-21 15:06 49.71079 3.00623 19866 ft 431 kts 118°
2026-04-21 15:06 49.69576 3.04610 19483 ft 427 kts 118°
2026-04-21 15:06 49.68087 3.08552 19094 ft 423 kts 118°
2026-04-21 15:07 49.66606 3.12464 18708 ft 419 kts 118°
2026-04-21 15:07 49.65139 3.16331 18314 ft 415 kts 118°
2026-04-21 15:07 49.63692 3.20161 17874 ft 411 kts 118°
2026-04-21 15:07 49.62253 3.23959 17453 ft 407 kts 119°
2026-04-21 15:08 49.60849 3.27653 17037 ft 403 kts 118°
2026-04-21 15:08 49.59432 3.31369 16633 ft 400 kts 118°
2026-04-21 15:08 49.58022 3.35054 16209 ft 397 kts 118°
2026-04-21 15:08 49.56631 3.38713 15813 ft 394 kts 118°
2026-04-21 15:09 49.55244 3.42344 15394 ft 391 kts 118°
2026-04-21 15:09 49.53868 3.45935 14989 ft 388 kts 118°
2026-04-21 15:09 49.52496 3.49505 14584 ft 385 kts 118°
2026-04-21 15:09 49.51134 3.53042 14176 ft 382 kts 118°
2026-04-21 15:10 49.49785 3.56552 13747 ft 379 kts 118°
2026-04-21 15:10 49.48447 3.60035 13339 ft 376 kts 118°
2026-04-21 15:10 49.47123 3.63483 12918 ft 372 kts 118°
2026-04-21 15:10 49.45804 3.66883 12516 ft 368 kts 118°
2026-04-21 15:11 49.44504 3.70246 12108 ft 364 kts 118°
2026-04-21 15:11 49.43215 3.73578 11714 ft 360 kts 117°
2026-04-21 15:11 49.41943 3.76876 11322 ft 356 kts 118°
2026-04-21 15:11 49.40688 3.80114 10931 ft 349 kts 118°
2026-04-21 15:12 49.39471 3.83257 10789 ft 334 kts 118°
2026-04-21 15:12 49.38298 3.86255 10676 ft 320 kts 118°
2026-04-21 15:12 49.37178 3.89121 10540 ft 307 kts 117°
2026-04-21 15:12 49.36105 3.91867 10431 ft 293 kts 117°
2026-04-21 15:13 49.35423 3.93623 10391 ft 284 kts 118°
2026-04-21 15:13 49.34101 3.97006 10262 ft 269 kts 118°
2026-04-21 15:13 49.33152 3.99441 10187 ft 263 kts 118°
2026-04-21 15:13 49.32208 4.01828 9978 ft 263 kts 121°
2026-04-21 15:14 49.30890 4.03790 9632 ft 269 kts 146°
2026-04-21 15:14 49.29092 4.04643 9323 ft 276 kts 171°
2026-04-21 15:14 49.27175 4.04724 9043 ft 275 kts 176°
2026-04-21 15:14 49.25267 4.04721 8751 ft 273 kts 176°
2026-04-21 15:15 49.24011 4.04726 8568 ft 272 kts 176°
2026-04-21 15:15 49.22120 4.04576 8250 ft 273 kts 183°
2026-04-21 15:15 49.20220 4.04177 7857 ft 276 kts 185°
2026-04-21 15:15 49.18314 4.03729 7466 ft 277 kts 185°
2026-04-21 15:16 49.16423 4.03301 7206 ft 273 kts 184°
2026-04-21 15:16 49.14548 4.02894 6879 ft 271 kts 184°
2026-04-21 15:16 49.12681 4.02503 6542 ft 270 kts 183°
2026-04-21 15:16 49.10826 4.02126 6222 ft 267 kts 183°
2026-04-21 15:17 49.08996 4.01756 5903 ft 263 kts 183°
2026-04-21 15:17 49.07197 4.01399 5588 ft 259 kts 184°
2026-04-21 15:17 49.05422 4.01043 5344 ft 255 kts 183°
2026-04-21 15:17 49.03678 4.00690 5087 ft 251 kts 182°
2026-04-21 15:18 49.01961 4.00346 4839 ft 247 kts 182°
2026-04-21 15:18 49.00272 4.00011 4576 ft 243 kts 182°
2026-04-21 15:18 48.98594 3.99683 4247 ft 242 kts 182°
2026-04-21 15:18 48.96930 3.99354 3964 ft 241 kts 182°
2026-04-21 15:19 48.95273 3.99029 3716 ft 240 kts 183°
2026-04-21 15:19 48.93620 3.98702 3479 ft 239 kts 182°
2026-04-21 15:19 48.91975 3.98372 3295 ft 238 kts 182°
2026-04-21 15:19 48.90354 3.98050 3135 ft 229 kts 183°
2026-04-21 15:20 48.88829 3.97745 3057 ft 213 kts 182°
2026-04-21 15:20 48.87387 3.97452 3011 ft 208 kts 182°
2026-04-21 15:20 48.85954 3.97171 2987 ft 207 kts 182°
2026-04-21 15:20 48.84545 3.96899 2973 ft 205 kts 182°
2026-04-21 15:21 48.83161 3.96624 2890 ft 198 kts 181°
2026-04-21 15:21 48.81800 3.96406 2802 ft 193 kts 167°
2026-04-21 15:21 48.80645 3.97167 2738 ft 177 kts 128°
2026-04-21 15:21 48.80096 3.98754 2718 ft 169 kts 102°
2026-04-21 15:22 48.79884 4.00498 2682 ft 168 kts 94°
2026-04-21 15:22 48.79719 4.02242 2440 ft 166 kts 95°
2026-04-21 15:22 48.79524 4.03940 2208 ft 158 kts 97°
2026-04-21 15:22 48.79318 4.05519 1977 ft 146 kts 97°
2026-04-21 15:23 48.79125 4.06962 1771 ft 135 kts 97°
2026-04-21 15:23 48.78938 4.08346 1598 ft 133 kts 98°
2026-04-21 15:23 48.78747 4.09716 1430 ft 133 kts 97°
2026-04-21 15:23 48.78558 4.11085 1176 ft 131 kts 95°
2026-04-21 15:24 48.78407 4.12450 1032 ft 132 kts 93°
2026-04-21 15:24 48.78227 4.13814 883 ft 131 kts 96°
2026-04-21 15:24 48.78051 4.15165 780 ft 130 kts 95°
2026-04-21 15:24 48.77869 4.16483 603 ft 123 kts 96°
2026-04-21 15:25 48.77736 4.17549 594 ft 74 kts 101°
2026-04-21 15:25 48.77666 4.18080 601 ft 36 kts 101°
2026-04-21 15:25 48.77627 4.18413 603 ft 28 kts 95°
2026-04-21 15:25 48.77637 4.18690 604 ft 17 kts 73°
2026-04-21 15:26 48.77660 4.18820 603 ft 14 kts 77°
2026-04-21 15:26 48.77685 4.18979 618 ft 17 kts 76°
2026-04-21 15:26 48.77721 4.19147 608 ft 15 kts 55°
2026-04-21 15:26 48.77804 4.19203 613 ft 13 kts
2026-04-21 15:27 48.77861 4.19218 608 ft 3 kts 11°
2026-04-21 15:27 48.77890 4.19227 617 ft 4 kts 10°
2026-04-21 15:27 48.77898 4.19229 619 ft 0 kts 10°